User: anonymous   Login
Location: Unspecified
(0.0000°N, 0.0000°E)
Time: 23:32:01
(UTC+01:00)
Language:

Cosmos 773 Rocket - Orbit

View from above orbital plane
View from above orbital plane
View from above satellite
View from above satellite

Ground track
Ground track

The orbit data is extracted from the following two-line orbital elements,

1 08344U 75094B   14327.79020584  .00000281  00000-0  99601-4 0  6230
2 08344 074.0593 050.8413 0021720 190.4073 305.4109 14.38846473 51002
Epoch (UTC): 23 November 2014 18:57:53
Eccentricity: 0.0021720
inclination: 74.0593°
perigee height: 747 km
apogee height: 778 km
right ascension of ascending node: 50.8413°
argument of perigee: 190.4073°
revolutions per day: 14.38846473
mean anomaly at epoch: 305.4109°
orbit number at epoch: 5100

The dashed part of the orbit path shows where the satellite is in the earth's shadow,  

DLR